This demonstration page uses our WeatherBlox Daily Observations layout. Learn more.

Left ArrowRight Arrow

Hourly Observations for January 10, 2019

Temp ( °F °C ) Dew Point ( °F °C ) Humidity (%) Winds ( mph kmh ) Pressure ( in mb ) Visibility ( mi km ) Precip ( " mm )
12:59 am 00:59 Partly Cloudy 36 2.2 18 -7.8 48 48 NW 22 35 29.92 1013 10 16 0.00 0.00
1:59 am 01:59 Partly Cloudy 36 2.2 16 -8.9 44 44 NW 22 35 29.93 1014 10 16 0.00 0.00
2:59 am 02:59 Mostly Cloudy 36 2.2 14 -10 40 40 NW 25 41 29.94 1014 10 16 0.00 0.00
3:59 am 03:59 Mostly Cloudy 34 1.1 14 -10 44 44 NW 20 31 29.94 1014 10 16 0.00 0.00
4:59 am 04:59 Partly Cloudy 33 0.6 14 -10 45 45 NW 18 30 29.95 1014 10 16 0.00 0.00
5:59 am 05:59 Partly Cloudy 32 0 13 -10.6 45 45 NW 22 35 29.98 1015 10 16 0.00 0.00
6:59 am 06:59 Partly Cloudy 31 -0.6 12 -11.1 45 45 NW 18 30 29.99 1016 10 16 0.00 0.00
7:59 am 07:59 Partly Cloudy 32 0 12 -11.1 43 43 WNW 23 37 30.02 1017 10 16 0.00 0.00
8:59 am 08:59 Mostly Sunny 34 1.1 13 -10.6 42 42 WNW 17 28 30.04 1017 10 16 0.00 0.00
9:59 am 09:59 Mostly Sunny 35 1.7 13 -10.6 40 40 NW 18 30 30.05 1018 10 16 0.00 0.00
10:59 am 10:59 Mostly Sunny 36 2.2 14 -10 40 40 WNW 20 31 30.04 1017 10 16 0.00 0.00
11:59 am 11:59 Mostly Sunny 38 3.3 15 -9.4 39 39 W 23 37 30.02 1017 10 16 0.00 0.00
12:59 pm 12:59 Mostly Sunny 39 3.9 15 -9.4 38 38 WNW 24 39 30.01 1016 10 16 0.00 0.00
1:59 pm 13:59 Mostly Sunny 40 4.4 16 -8.9 38 38 WNW 25 41 30.01 1016 10 16 0.00 0.00
2:59 pm 14:59 Mostly Sunny 41 5 16 -8.9 36 36 WNW 21 33 30.02 1017 10 16 0.00 0.00
3:59 pm 15:59 Mostly Sunny 40 4.4 16 -8.9 38 38 WNW 18 30 30.03 1017 10 16 0.00 0.00
4:59 pm 16:59 Mostly Sunny 38 3.3 15 -9.4 39 39 WNW 20 31 30.06 1018 10 16 0.00 0.00
5:59 pm 17:59 Mostly Clear 37 2.8 14 -10 39 39 NW 18 30 30.10 1019 10 16 0.00 0.00
6:59 pm 18:59 Clear 36 2.2 14 -10 40 40 NW 14 22 30.12 1020 10 16 0.00 0.00
7:59 pm 19:59 Clear 35 1.7 13 -10.6 40 40 NW 17 28 30.13 1020 10 16 0.00 0.00
8:59 pm 20:59 Clear 35 1.7 14 -10 42 42 NW 18 30 30.15 1021 10 16 0.00 0.00
9:59 pm 21:59 Clear 33 0.6 15 -9.4 47 47 NW 13 20 30.17 1022 10 16 0.00 0.00
10:59 pm 22:59 Clear 32 0 15 -9.4 50 50 NNW 18 30 30.19 1022 10 16 0.00 0.00
11:59 pm 23:59 Clear 31 -0.6 15 -9.4 52 52 NNW 16 26 30.19 1023 10 16 0.00 0.00

Powered by AerisWeather